Weather History for Chicago Lansing, IL

Change the Weather History Date:

Saturday, May 5, 2012

  Actual Average (KMDW) Record (KMDW)
Temperature  
Mean Temperature 56 °F 58 °F  
Max Temperature 64 °F 67 °F 94 °F (1949)
Min Temperature 49 °F 48 °F 34 °F (1954)
Degree Days  
Heating Degree Days 8 8  
Month to date heating degree days 45  
Since 1 July heating degree days 5816  
Cooling Degree Days 0 1  
Month to date cooling degree days 5  
Year to date cooling degree days 18  
Growing Degree Days 6 (Base 50)    
Moisture  
Dew Point 53 °F    
Average Humidity 91    
Maximum Humidity 100    
Minimum Humidity 77    
Precipitation  
Precipitation 0.00 in 0.13 in 0.83 in (1991)
Month to date precipitation 0.62  
Year to date precipitation 10.98  
Sea Level Pressure  
Sea Level Pressure 30.00 in    
Wind  
Wind Speed 5 mph (NNE)    
Max Wind Speed 12 mph    
Max Gust Speed -    
Visibility 4 miles    
Events Fog , Rain    
T = Trace of Precipitation, MM = Missing Value Source: NWS Daily Summary

Daily Weather History Graph

Daily Weather History Graph

Search for Another Location

Airport:

Trip Planner

Search our weather history database for the weather conditions in past years. The results will help you decide how hot, cold, wet, or windy it might be!

Date:

Astronomy

May. 05, 2012 Rise Set
Actual Time 5:41 AM CDT 7:52 PM CDT
Civil Twilight 5:10 AM CDT 8:23 PM CDT
Nautical Twilight 4:33 AM CDT 9:01 PM CDT
Astronomical Twilight 3:51 AM CDT 9:42 PM CDT
Moon 7:45 PM CDT (5/5) 5:03 AM CDT (5/5)
Length of Visible Light 15h 12m
Length of Day
14h 11m
Full, 100% of the Moon is Illuminated
May 5
Full
May 5
Full
May 12
Last Quarter
May 20
New
May 28
First Quarter

Hourly Weather History & Observations

Time (CDT) Temp. Dew Point Humidity Pressure Visibility Wind Dir Wind Speed Gust Speed Precip Events Conditions
12:15 AM 49.3 °F 49.1 °F 99% 29.97 in 1.5 mi NNE 6.9 mph - N/A   Overcast
12:35 AM 49.5 °F 49.3 °F 99% 29.96 in 1.2 mi NE 6.9 mph - N/A   Overcast
12:55 AM 49.5 °F 49.3 °F 99% 29.96 in 0.5 mi NNE 3.5 mph - N/A Fog Fog
1:15 AM 49.8 °F 49.6 °F 99% 29.96 in 0.5 mi NNE 4.6 mph - N/A Rain Rain
1:35 AM 50.0 °F 50.0 °F 100% 29.96 in 0.5 mi NE 5.8 mph - N/A   Drizzle
1:55 AM 49.6 °F 49.6 °F 100% 29.95 in 1.0 mi NNE 6.9 mph - N/A   Drizzle
2:15 AM 50.0 °F 50.0 °F 100% 29.94 in 0.8 mi NNE 3.5 mph - N/A   Light Drizzle
2:35 AM 50.2 °F 50.2 °F 100% 29.94 in 0.8 mi ENE 5.8 mph - N/A   Overcast
2:55 AM 50.5 °F 50.5 °F 100% 29.94 in 0.8 mi NE 4.6 mph - N/A   Overcast
3:15 AM 50.7 °F 50.7 °F 100% 29.94 in 0.5 mi NNE 3.5 mph - N/A Fog Fog
3:35 AM 51.1 °F 51.1 °F 100% 29.96 in 0.8 mi Calm Calm - N/A   Overcast
3:55 AM 51.3 °F 51.3 °F 100% 29.95 in 0.8 mi NNE 3.5 mph - N/A   Overcast
4:15 AM 51.4 °F 51.4 °F 100% 29.95 in 1.0 mi North 4.6 mph - N/A   Overcast
4:35 AM 51.8 °F 51.8 °F 100% 29.96 in 1.2 mi NNW 3.5 mph - N/A   Overcast
4:55 AM 51.6 °F 51.6 °F 100% 29.96 in 1.5 mi NNW 3.5 mph - N/A   Overcast
5:15 AM 51.8 °F 51.8 °F 100% 29.96 in 1.5 mi Calm Calm - N/A   Overcast
5:35 AM 52.0 °F 52.0 °F 100% 29.96 in 1.2 mi Calm Calm - N/A   Overcast
5:55 AM 52.2 °F 52.2 °F 100% 29.97 in 1.8 mi North 3.5 mph - N/A   Overcast
6:15 AM 52.7 °F 52.7 °F 100% 29.97 in 1.2 mi North 3.5 mph - N/A   Overcast
6:35 AM 52.9 °F 52.9 °F 100% 29.97 in 1.8 mi NNE 3.5 mph - N/A   Overcast
6:55 AM 53.6 °F 53.6 °F 100% 29.98 in 2.0 mi Calm Calm - N/A   Overcast
7:15 AM 54.0 °F 53.8 °F 99% 29.99 in 2.0 mi North 4.6 mph - N/A   Overcast
7:35 AM 54.1 °F 53.8 °F 99% 29.99 in 2.0 mi NNE 5.8 mph - N/A   Overcast
7:55 AM 53.8 °F 53.4 °F 99% 29.99 in 2.0 mi NNE 6.9 mph - N/A   Overcast
8:15 AM 54.7 °F 54.1 °F 98% 30.00 in 2.0 mi NNE 4.6 mph - N/A   Overcast
8:35 AM 55.6 °F 54.7 °F 97% 30.01 in 2.0 mi NNE 4.6 mph - N/A   Overcast
8:55 AM 56.5 °F 55.0 °F 95% 30.01 in 2.0 mi NE 3.5 mph - N/A   Overcast
9:15 AM 57.4 °F 55.8 °F 94% 30.01 in 2.0 mi NE 3.5 mph - N/A   Overcast
9:35 AM 58.6 °F 56.5 °F 93% 30.00 in 2.5 mi Calm Calm - N/A   Overcast
9:55 AM 60.4 °F 57.4 °F 90% 30.00 in 3.0 mi NE 5.8 mph - N/A   Overcast
10:15 AM 61.9 °F 58.3 °F 88% 30.01 in 4.0 mi NNE 6.9 mph - N/A   Overcast
10:35 AM 63.0 °F 59.0 °F 87% 30.00 in 4.0 mi NNE 5.8 mph - N/A   Overcast
10:55 AM 64.2 °F 59.5 °F 85% 30.00 in 4.0 mi Calm Calm - N/A   Overcast
11:15 AM 62.2 °F 57.2 °F 84% 30.01 in 4.0 mi North 3.5 mph - N/A   Haze
11:35 AM 61.7 °F 57.0 °F 85% 30.00 in 4.0 mi NNE 3.5 mph - N/A   Haze
11:55 AM 61.3 °F 56.7 °F 85% 30.00 in 4.0 mi NNE 9.2 mph - N/A   Overcast
12:15 PM 60.1 °F 55.6 °F 85% 30.00 in 5.0 mi NNE 8.1 mph - N/A   Overcast
12:35 PM 59.0 °F 54.7 °F 86% 30.01 in 4.0 mi NNE 10.4 mph - N/A   Overcast
12:55 PM 58.5 °F 55.0 °F 88% 30.01 in 4.0 mi NNE 9.2 mph - N/A   Overcast
1:15 PM 60.6 °F 56.5 °F 86% 30.00 in 4.0 mi NNE 4.6 mph - N/A   Overcast
1:35 PM 61.5 °F 56.7 °F 84% 30.00 in 5.0 mi NNE 9.2 mph - N/A   Haze
1:55 PM 62.6 °F 56.8 °F 81% 30.00 in 5.0 mi North 4.6 mph - N/A   Haze
2:15 PM 63.1 °F 57.6 °F 82% 30.00 in 4.0 mi NE 9.2 mph - N/A   Haze
2:35 PM 62.6 °F 55.9 °F 79% 30.01 in 5.0 mi NNE 9.2 mph - N/A   Haze
2:55 PM 60.8 °F 54.7 °F 80% 30.01 in 7.0 mi NNE 9.2 mph - N/A   Overcast
3:15 PM 60.4 °F 54.3 °F 80% 30.01 in 7.0 mi North 9.2 mph - N/A   Overcast
3:35 PM 61.7 °F 55.0 °F 79% 30.01 in 10.0 mi NNE 6.9 mph - N/A   Scattered Clouds
3:55 PM 62.6 °F 55.4 °F 77% 30.00 in 10.0 mi NNE 9.2 mph - N/A   Clear
4:15 PM 62.6 °F 56.1 °F 79% 30.00 in 10.0 mi NNE 10.4 mph - N/A   Clear
4:35 PM 63.1 °F 56.3 °F 78% 29.99 in 10.0 mi NNE 6.9 mph - N/A   Clear
4:55 PM 63.7 °F 56.5 °F 77% 30.00 in 10.0 mi NNE 6.9 mph - N/A   Clear
5:15 PM 63.9 °F 56.8 °F 78% 30.00 in 10.0 mi NNE 9.2 mph - N/A   Clear
5:35 PM 62.4 °F 55.8 °F 79% 30.00 in 7.0 mi NNE 11.5 mph - N/A   Clear
5:55 PM 62.1 °F 55.2 °F 78% 30.00 in 7.0 mi NNE 6.9 mph - N/A   Clear
6:15 PM 60.1 °F 53.6 °F 79% 30.00 in 10.0 mi NNE 8.1 mph - N/A   Clear
6:35 PM 58.1 °F 52.5 °F 82% 30.00 in 10.0 mi NE 6.9 mph - N/A   Clear
6:55 PM 57.6 °F 52.7 °F 84% 30.01 in 7.0 mi NNE 8.1 mph - N/A   Clear
7:15 PM 55.2 °F 51.8 °F 88% 30.01 in 7.0 mi NNE 10.4 mph - N/A   Clear
7:35 PM 54.5 °F 51.4 °F 89% 30.02 in 5.0 mi North 4.6 mph - N/A   Clear
7:55 PM 52.9 °F 50.4 °F 91% 30.02 in 7.0 mi North 6.9 mph - N/A   Clear
8:15 PM 52.2 °F 50.0 °F 92% 30.03 in 7.0 mi North 6.9 mph - N/A   Clear
8:35 PM 52.0 °F 50.0 °F 93% 30.03 in 7.0 mi North 6.9 mph - N/A   Clear
8:55 PM 51.8 °F 50.0 °F 94% 30.04 in 7.0 mi North 8.1 mph - N/A   Clear
9:15 PM 51.8 °F 50.0 °F 94% 30.05 in 7.0 mi North 8.1 mph - N/A   Clear
9:35 PM 51.8 °F 50.4 °F 95% 30.06 in 7.0 mi North 8.1 mph - N/A   Scattered Clouds
9:55 PM 51.8 °F 50.5 °F 95% 30.06 in 7.0 mi North 9.2 mph - N/A   Mostly Cloudy
10:15 PM 51.6 °F 50.4 °F 95% 30.04 in 7.0 mi NNE 9.2 mph - N/A   Scattered Clouds
10:35 PM 51.8 °F 50.5 °F 95% 30.05 in 5.0 mi North 5.8 mph - N/A   Clear
10:55 PM 51.8 °F 50.7 °F 96% 30.03 in 7.0 mi NNE 3.5 mph - N/A   Clear
11:15 PM 52.0 °F 50.9 °F 96% 30.02 in 5.0 mi Calm Calm - N/A   Clear
11:35 PM 52.2 °F 50.9 °F 95% 30.03 in 5.0 mi North 4.6 mph - N/A   Clear
11:55 PM 52.2 °F 50.9 °F 95% 30.03 in 5.0 mi North 3.5 mph - N/A   Clear